Weather History for KMDS - March, 2014

Change the Weather History Date:

Wednesday, March 26, 2014

  Actual Average Record
Temperature  
Mean Temperature 39 °F -  
Max Temperature 59 °F 46 °F 66 °F (2012)
Min Temperature 19 °F 24 °F 8 °F (2013)
Degree Days  
Heating Degree Days 26    
Moisture  
Dew Point 21 °F    
Average Humidity 54    
Maximum Humidity 100    
Minimum Humidity 33    
Precipitation  
Precipitation 0.00 in - - ()
Sea Level Pressure  
Sea Level Pressure 29.62 in    
Wind  
Wind Speed 19 mph (South)    
Max Wind Speed 36 mph    
Max Gust Speed 48 mph    
Visibility 10 miles    
Events      
Averages and records for this station are not official NWS values.
T = Trace of Precipitation, MM = Missing Value Source: NWS Daily Summary

Daily Weather History Graph

Daily Weather History Graph

Search for Another Location

Airport or City:

Trip Planner

Search our weather history database for the weather conditions in past years. The results will help you decide how hot, cold, wet, or windy it might be!

Date:

Astronomy

Mar. 26, 2014 Rise Set
Actual Time 7:20 AM CDT 7:48 PM CDT
Civil Twilight 6:51 AM CDT 8:17 PM CDT
Nautical Twilight 6:17 AM CDT 8:51 PM CDT
Astronomical Twilight 5:42 AM CDT 9:26 PM CDT
Moon 4:38 AM CDT (3/26) 3:19 PM CDT (3/26)
Length of Visible Light 13h 25m
Length of Day
12h 27m
Waning Crescent, 21% of the Moon is Illuminated
Mar 26
Waning Crescent
Mar 30
New
Apr 7
First Quarter
Apr 15
Full
Apr 22
Last Quarter

Hourly Weather History & Observations

Time (CDT) Temp. Windchill Dew Point Humidity Pressure Visibility Wind Dir Wind Speed Gust Speed Precip Events Conditions
12:05 AM 19.4 °F 9.5 °F 10.4 °F 68% 30.02 in 10.0 mi SSE 8.1 mph - N/A   Clear
12:25 AM 19.4 °F 8.6 °F 10.4 °F 68% 30.01 in 10.0 mi SE 9.2 mph - N/A   Clear
12:45 AM 19.4 °F 8.6 °F 10.4 °F 68% 30.00 in 10.0 mi SSE 9.2 mph - N/A   Clear
1:05 AM 19.4 °F 7.9 °F 10.4 °F 68% 30.00 in 10.0 mi SSE 10.4 mph - N/A   Clear
1:25 AM 19.4 °F 8.6 °F 10.4 °F 68% 29.99 in 10.0 mi SSE 9.2 mph - N/A   Clear
1:45 AM 19.4 °F 7.2 °F 8.6 °F 63% 29.99 in 10.0 mi SSE 11.5 mph - N/A   Clear
2:05 AM 19.4 °F 7.2 °F 10.4 °F 68% 29.98 in 10.0 mi SSE 11.5 mph - N/A   Clear
2:25 AM 19.4 °F 6.6 °F 10.4 °F 68% 29.97 in 10.0 mi SSE 12.7 mph - N/A   Clear
2:45 AM 19.4 °F 6.0 °F 10.4 °F 68% 29.96 in 10.0 mi SSE 13.8 mph - N/A   Clear
3:05 AM 19.4 °F 5.5 °F 8.6 °F 63% 29.95 in 10.0 mi SSE 15.0 mph - N/A   Scattered Clouds
3:25 AM 19.4 °F 5.0 °F 8.6 °F 63% 29.94 in 10.0 mi SSE 16.1 mph 19.6 mph N/A   Partly Cloudy
3:45 AM 19.4 °F 6.0 °F 8.6 °F 63% 29.93 in 10.0 mi SSE 13.8 mph - N/A   Clear
4:05 AM 19.4 °F 5.5 °F 8.6 °F 63% 29.91 in 10.0 mi SSE 15.0 mph 20.7 mph N/A   Clear
4:25 AM 21.2 °F 7.8 °F 8.6 °F 58% 29.90 in 10.0 mi SSE 15.0 mph - N/A   Clear
4:45 AM 21.2 °F 7.3 °F 8.6 °F 58% 29.88 in 10.0 mi SSE 16.1 mph - N/A   Clear
5:05 AM 21.2 °F 6.8 °F 8.6 °F 58% 29.87 in 10.0 mi SSE 17.3 mph - N/A   Clear
5:25 AM 21.2 °F 7.8 °F 8.6 °F 58% 29.86 in 10.0 mi SSE 15.0 mph 19.6 mph N/A   Clear
5:45 AM 21.2 °F 7.3 °F 8.6 °F 58% 29.85 in 10.0 mi SSE 16.1 mph 20.7 mph N/A   Clear
6:05 AM 23.0 °F 10.1 °F 6.8 °F 50% 29.84 in 10.0 mi SSE 15.0 mph 20.7 mph N/A   Clear
6:25 AM 23.0 °F 9.6 °F 8.6 °F 54% 29.82 in 10.0 mi SSE 16.1 mph - N/A   Clear
6:45 AM 23.0 °F 9.6 °F 8.6 °F 54% 29.81 in 10.0 mi SSE 16.1 mph 26.5 mph N/A   Clear
7:05 AM 23.0 °F 9.2 °F 8.6 °F 54% 29.80 in 10.0 mi SSE 17.3 mph 24.2 mph N/A   Clear
7:25 AM 23.0 °F 7.6 °F 8.6 °F 54% 29.79 in 10.0 mi SSE 21.9 mph 27.6 mph N/A   Clear
7:45 AM 24.8 °F 10.0 °F 8.6 °F 50% 29.77 in 10.0 mi South 21.9 mph 31.1 mph N/A   Clear
8:05 AM 24.8 °F 10.3 °F 8.6 °F 50% 29.77 in 10.0 mi South 20.7 mph 32.2 mph N/A   Clear
8:25 AM 26.6 °F 12.4 °F 10.4 °F 51% 29.76 in 10.0 mi South 21.9 mph 28.8 mph N/A   Clear
8:45 AM 26.6 °F 11.7 °F 10.4 °F 51% 29.75 in 10.0 mi South 24.2 mph 32.2 mph N/A   Clear
9:05 AM 28.4 °F 13.5 °F 12.2 °F 51% 29.72 in 10.0 mi South 26.5 mph 34.5 mph N/A   Clear
9:25 AM 30.2 °F 15.7 °F 14.0 °F 51% 29.71 in 10.0 mi South 27.6 mph 43.7 mph N/A   Clear
9:45 AM 32.0 °F 17.2 °F 14.0 °F 48% 29.69 in 10.0 mi South 32.2 mph 41.4 mph N/A   Clear
10:05 AM 33.8 °F 20.3 °F 15.8 °F 48% 29.68 in 10.0 mi South 28.8 mph 38.0 mph N/A   Clear
10:25 AM 35.6 °F 22.1 °F 17.6 °F 48% 29.67 in 10.0 mi South 32.2 mph 41.4 mph N/A   Clear
10:45 AM 37.4 °F 24.0 °F 17.6 °F 45% 29.65 in 10.0 mi South 35.7 mph 41.4 mph N/A   Clear
11:05 AM 37.4 °F 24.6 °F 17.6 °F 45% 29.64 in 10.0 mi South 32.2 mph 39.1 mph N/A   Clear
11:25 AM 39.2 °F 27.4 °F 19.4 °F 45% 29.62 in 10.0 mi South 29.9 mph 40.3 mph N/A   Clear
11:45 AM 41.0 °F 29.3 °F 19.4 °F 42% 29.61 in 10.0 mi South 33.4 mph 40.3 mph N/A   Clear
12:05 PM 42.8 °F 32.1 °F 19.4 °F 39% 29.60 in 10.0 mi South 31.1 mph 41.4 mph N/A   Clear
12:25 PM 44.6 °F 34.2 °F 21.2 °F 39% 29.58 in 10.0 mi South 33.4 mph 41.4 mph N/A   Clear
12:45 PM 46.4 °F 36.9 °F 23.0 °F 40% 29.57 in 10.0 mi South 32.2 mph 42.6 mph N/A   Clear
1:05 PM 46.4 °F 37.0 °F 23.0 °F 40% 29.56 in 10.0 mi South 31.1 mph 41.4 mph N/A   Clear
1:25 PM 48.2 °F - 23.0 °F 37% 29.54 in 10.0 mi South 31.1 mph 42.6 mph N/A   Clear
1:45 PM 48.2 °F - 23.0 °F 37% 29.53 in 10.0 mi South 31.1 mph 42.6 mph N/A   Clear
2:05 PM 50.0 °F - 23.0 °F 35% 29.51 in 10.0 mi South 32.2 mph 40.3 mph N/A   Clear
2:25 PM 51.8 °F - 24.8 °F 35% 29.49 in 10.0 mi South 32.2 mph 38.0 mph N/A   Clear
2:45 PM 53.6 °F - 26.6 °F 35% 29.47 in 10.0 mi South 35.7 mph 42.6 mph N/A   Clear
3:05 PM 55.4 °F - 26.6 °F 33% 29.46 in 10.0 mi South 33.4 mph 42.6 mph N/A   Clear
3:25 PM 55.4 °F - 26.6 °F 33% 29.44 in 10.0 mi South 32.2 mph 46.0 mph N/A   Clear
3:45 PM 57.2 °F - 28.4 °F 33% 29.43 in 10.0 mi South 31.1 mph 42.6 mph N/A   Clear
4:05 PM 57.2 °F - 28.4 °F 33% 29.42 in 10.0 mi South 29.9 mph 46.0 mph N/A   Clear
4:25 PM 57.2 °F - 28.4 °F 33% 29.40 in 10.0 mi South 31.1 mph 48.3 mph N/A   Clear
4:45 PM 57.2 °F - 30.2 °F 36% 29.40 in 10.0 mi South 29.9 mph 40.3 mph N/A   Clear
5:05 PM 59.0 °F - 32.0 °F 36% 29.39 in 10.0 mi South 29.9 mph 46.0 mph N/A   Clear
5:25 PM 59.0 °F - 32.0 °F 36% 29.37 in 10.0 mi South 27.6 mph 44.9 mph N/A   Clear
5:45 PM 59.0 °F - 32.0 °F 36% 29.36 in 10.0 mi South 24.2 mph 39.1 mph N/A   Clear
6:05 PM 59.0 °F - 32.0 °F 36% 29.36 in 10.0 mi South 25.3 mph 34.5 mph N/A   Clear
6:25 PM 59.0 °F - 32.0 °F 36% 29.35 in 10.0 mi South 21.9 mph 28.8 mph N/A   Clear
6:45 PM 59.0 °F - 32.0 °F 36% 29.34 in 10.0 mi South 19.6 mph 27.6 mph N/A   Clear
7:05 PM 57.2 °F - 32.0 °F 38% 29.34 in 10.0 mi South 17.3 mph 29.9 mph N/A   Clear
7:25 PM 55.4 °F - 33.8 °F 44% 29.34 in 10.0 mi South 13.8 mph - N/A   Clear
7:45 PM 55.4 °F - 33.8 °F 44% 29.33 in 10.0 mi South 20.7 mph - N/A   Clear
8:05 PM 53.6 °F - 35.6 °F 51% 29.33 in 10.0 mi South 23.0 mph 32.2 mph N/A   Scattered Clouds
8:25 PM 53.6 °F - 35.6 °F 51% 29.34 in 10.0 mi South 23.0 mph 32.2 mph N/A   Mostly Cloudy
8:45 PM 50.0 °F - 35.6 °F 58% 29.34 in 10.0 mi South 20.7 mph 34.5 mph N/A   Scattered Clouds
9:05 PM 50.0 °F - 37.4 °F 62% 29.34 in 10.0 mi South 27.6 mph 41.4 mph N/A   Partly Cloudy
9:25 PM 48.2 °F - 39.2 °F 71% 29.35 in 10.0 mi South 28.8 mph 41.4 mph N/A   Partly Cloudy
9:45 PM 46.4 °F 37.9 °F 39.2 °F 76% 29.36 in 10.0 mi South 25.3 mph 39.1 mph N/A   Clear
10:05 PM 44.6 °F 35.9 °F 41.0 °F 87% 29.37 in 10.0 mi South 23.0 mph 34.5 mph N/A   Clear
10:25 PM 44.6 °F 35.3 °F 41.0 °F 87% 29.38 in 10.0 mi South 26.5 mph 33.4 mph N/A   Clear
10:45 PM 44.6 °F 35.7 °F 44.6 °F 100% 29.37 in 10.0 mi South 24.2 mph 32.2 mph N/A   Mostly Cloudy
11:05 PM 44.6 °F 35.1 °F 44.6 °F 100% 29.36 in 10.0 mi South 27.6 mph 34.5 mph N/A   Overcast
11:25 PM 44.6 °F 35.5 °F 44.6 °F 100% 29.37 in 10.0 mi South 25.3 mph 34.5 mph N/A   Overcast
11:45 PM 44.6 °F 35.9 °F 44.6 °F 100% 29.38 in 10.0 mi South 23.0 mph 29.9 mph N/A   Overcast